Location: Sternwarte ZA, Rosenfeld-Brittheim
(48.2889°N, 8.6789°E)
Time: 07:31:57
(UTC+02:00)

ISS - Pass Details

Date: 23 May 2021
Orbit: 417 x 422 km, 51.6° (Epoch: 18 June)

Event Time Altitude Azimuth Distance (km) Brightness Sun altitude
Rises 22:08:46 0° 279° (W) 2,365 1.0 -8.6°
Reaches altitude 10° 22:10:55 10° 286° (WNW) 1,502 0.1 -8.8°
Maximum altitude 22:14:11 45° 1° (N) 586 -2.6 -9.2°
Drops below altitude 10° 22:17:26 10° 75° (ENE) 1,505 -1.2 -9.6°
Enters shadow 22:19:14 - 81° (E) 2,220 -0.4 -9.8°
